| time (UTC) | temp F | wind direction | speed knots | gust knots | rain 1hr in | rain 24hr in | rain mn in | humidity % | barometer mb |
| 20260509024544 | 70 | 154 | 1.7 | 4.3 | 0.00 | 0.00 | 0.00 | 89 | 1010.0 |
| 20260509024339 | 70 | 154 | 2.6 | 3.5 | 0.00 | 0.00 | 0.00 | 89 | 1011.2 |
| 20260509024015 | 70 | 154 | 0.9 | 4.3 | 0.00 | 0.00 | 0.00 | 89 | 1010.0 |
| 20260509023815 | 70 | 153 | 0.9 | 4.3 | 0.00 | 0.00 | 0.00 | 89 | 1011.3 |
| 20260509023600 | 70 | 154 | 1.7 | 4.3 | 0.00 | 0.00 | 0.00 | 89 | 1010.1 |
| 20260509023331 | 70 | 153 | 1.7 | 4.3 | 0.00 | 0.00 | 0.00 | 89 | 1011.2 |
| 20260509023057 | 70 | 154 | 0.9 | 4.3 | 0.00 | 0.00 | 0.00 | 88 | 1010.0 |
| 20260509022846 | 70 | 153 | 1.7 | 4.3 | 0.00 | 0.00 | 0.00 | 88 | 1011.2 |
| 20260509022523 | 70 | 154 | 0.9 | 4.3 | 0.00 | 0.00 | 0.00 | 88 | 1010.0 |
| 20260509022320 | 71 | 153 | 0.9 | 6.1 | 0.00 | 0.00 | 0.00 | 88 | 1011.1 |
| 20260509022006 | 70 | 154 | 1.7 | 6.1 | 0.00 | 0.00 | 0.00 | 88 | 1009.8 |
| 20260509021817 | 71 | 136 | 2.6 | 6.1 | 0.00 | 0.00 | 0.00 | 88 | 1011.0 |
| 20260509021600 | 70 | 149 | 3.5 | 5.2 | 0.00 | 0.00 | 0.00 | 88 | 1009.8 |
| 20260509021314 | 71 | 154 | 2.6 | 4.3 | 0.00 | 0.00 | 0.00 | 88 | 1011.0 |
| 20260509021053 | 70 | 138 | 1.7 | 4.3 | 0.00 | 0.00 | 0.00 | 88 | 1009.8 |
| 20260509020831 | 71 | 135 | 1.7 | 6.1 | 0.00 | 0.00 | 0.00 | 88 | 1010.9 |
| 20260509020546 | 70 | 146 | 2.6 | 6.1 | 0.00 | 0.00 | 0.00 | 88 | 1009.7 |
| 20260509020327 | 71 | 140 | 2.6 | 6.1 | 0.00 | 0.00 | 0.00 | 87 | 1010.8 |
| 20260509020038 | 70 | 131 | 2.6 | 5.2 | 0.00 | 0.00 | 0.00 | 88 | 1009.6 |
| 20260509015822 | 71 | 148 | 2.6 | 6.1 | 0.00 | 0.00 | 0.00 | 87 | 1010.8 |
| 20260509015603 | 71 | 152 | 2.6 | 6.1 | 0.00 | 0.00 | 0.00 | 87 | 1009.6 |
| 20260509015318 | 71 | 156 | 3.5 | 6.1 | 0.00 | 0.00 | 0.00 | 87 | 1010.8 |
| 20260509015051 | 71 | 152 | 3.5 | 6.1 | 0.00 | 0.00 | 0.00 | 87 | 1009.6 |
| 20260509014814 | 71 | 158 | 4.3 | 6.1 | 0.00 | 0.00 | 0.00 | 87 | 1010.9 |
| 20260509014544 | 71 | 139 | 1.7 | 5.2 | 0.00 | 0.00 | 0.00 | 87 | 1009.6 |
| 20260509014331 | 72 | 136 | 0.9 | 3.5 | 0.00 | 0.00 | 0.00 | 86 | 1010.8 |
| 20260509014012 | 71 | 148 | 0.0 | 0.0 | 0.00 | 0.00 | 0.00 | 87 | 1009.7 |
| 20260509013829 | 72 | 143 | 0.0 | 0.0 | 0.00 | 0.00 | 0.00 | 86 | 1010.9 |
| 20260509013544 | 71 | 135 | 0.0 | 0.0 | 0.00 | 0.00 | 0.00 | 86 | 1009.6 |
| 20260509013344 | 72 | 125 | 0.0 | 0.0 | 0.00 | 0.00 | 0.00 | 86 | 1010.8 |
| 20260509013027 | 72 | 127 | 0.0 | 0.0 | 0.00 | 0.00 | 0.00 | 86 | 1009.6 |
| 20260509012818 | 72 | 156 | 0.0 | 0.0 | 0.00 | 0.00 | 0.00 | 86 | 1010.8 |
| 20260509012502 | 72 | 142 | 0.0 | 0.0 | 0.00 | 0.00 | 0.00 | 86 | 1009.8 |
| 20260509012333 | 72 | 137 | 0.0 | 0.0 | 0.00 | 0.00 | 0.00 | 86 | 1011.1 |
| 20260509012054 | 72 | 106 | 0.0 | 0.0 | 0.00 | 0.00 | 0.00 | 86 | 1009.8 |
| 20260509011830 | 72 | 106 | 0.0 | 0.0 | 0.00 | 0.00 | 0.00 | 85 | 1011.2 |
| 20260509011548 | 72 | 106 | 0.0 | 0.0 | 0.00 | 0.00 | 0.00 | 85 | 1009.9 |
| 20260509011329 | 72 | 106 | 0.0 | 0.0 | 0.00 | 0.00 | 0.00 | 85 | 1011.1 |
| 20260509011036 | 72 | 112 | 0.0 | 0.0 | 0.00 | 0.00 | 0.00 | 85 | 1009.9 |
| 20260509010824 | 72 | 112 | 0.0 | 0.0 | 0.00 | 0.00 | 0.00 | 85 | 1011.0 |
| 20260509010528 | 72 | 112 | 0.0 | 0.0 | 0.00 | 0.00 | 0.00 | 85 | 1009.8 |
| 20260509010320 | 72 | 112 | 0.0 | 0.0 | 0.00 | 0.00 | 0.00 | 85 | 1010.9 |
| 20260509010027 | 72 | 103 | 0.0 | 0.0 | 0.00 | 0.00 | 0.00 | 85 | 1009.6 |
| 20260509005816 | 72 | 101 | 0.0 | 0.0 | 0.00 | 0.00 | 0.00 | 85 | 1010.7 |
| 20260509005517 | 72 | 156 | 0.0 | 0.0 | 0.00 | 0.00 | 0.00 | 85 | 1009.5 |
| 20260509005332 | 72 | 120 | 0.0 | 0.0 | 0.00 | 0.00 | 0.00 | 85 | 1010.6 |
| 20260509005059 | 72 | 149 | 0.0 | 0.0 | 0.00 | 0.00 | 0.00 | 85 | 1009.3 |
| 20260509004829 | 72 | 145 | 0.0 | 0.0 | 0.00 | 0.00 | 0.00 | 85 | 1010.5 |
| 20260509004555 | 72 | 85 | 0.0 | 0.0 | 0.00 | 0.00 | 0.00 | 85 | 1009.3 |
| 20260509004325 | 73 | 117 | 0.0 | 0.0 | 0.00 | 0.00 | 0.00 | 85 | 1010.5 |
| 20260509004044 | 72 | 139 | 0.0 | 0.0 | 0.00 | 0.00 | 0.00 | 85 | 1009.2 |
| 20260509003822 | 73 | 101 | 0.0 | 0.0 | 0.00 | 0.00 | 0.00 | 85 | 1010.4 |
| 20260509003536 | 72 | 98 | 0.0 | 0.0 | 0.00 | 0.00 | 0.00 | 85 | 1009.1 |
| 20260509003317 | 73 | 109 | 0.0 | 0.0 | 0.00 | 0.00 | 0.00 | 84 | 1010.4 |
| 20260509003032 | 72 | 95 | 0.0 | 0.0 | 0.00 | 0.00 | 0.00 | 84 | 1009.2 |
| 20260509002833 | 73 | 112 | 0.0 | 0.0 | 0.00 | 0.00 | 0.00 | 84 | 1010.4 |
| 20260509002528 | 72 | 62 | 0.0 | 0.0 | 0.00 | 0.00 | 0.00 | 84 | 1009.3 |
| 20260509002330 | 73 | 94 | 0.0 | 0.0 | 0.00 | 0.00 | 0.00 | 84 | 1010.5 |
| 20260509002012 | 72 | 101 | 0.0 | 0.0 | 0.00 | 0.00 | 0.00 | 84 | 1009.3 |
| 20260509001827 | 73 | 106 | 0.0 | 0.0 | 0.00 | 0.00 | 0.00 | 84 | 1010.5 |
| 20260509001600 | 72 | 79 | 0.0 | 0.0 | 0.00 | 0.00 | 0.00 | 84 | 1009.4 |
| 20260509001324 | 73 | 80 | 0.0 | 0.0 | 0.00 | 0.00 | 0.00 | 84 | 1010.5 |
| 20260509001053 | 72 | 80 | 0.0 | 0.0 | 0.00 | 0.00 | 0.00 | 84 | 1009.3 |
| 20260509000820 | 73 | 120 | 0.0 | 0.0 | 0.00 | 0.00 | 0.00 | 84 | 1010.5 |
| 20260509000550 | 72 | 110 | 0.0 | 0.0 | 0.00 | 0.00 | 0.00 | 84 | 1009.4 |
| 20260509000318 | 73 | 139 | 0.0 | 0.0 | 0.00 | 0.00 | 0.00 | 84 | 1010.6 |
| 20260509000053 | 73 | 95 | 0.0 | 0.0 | 0.00 | 0.00 | 0.00 | 84 | 1009.3 |
| 20260508235832 | 73 | 128 | 0.0 | 0.0 | 0.00 | 0.00 | 0.00 | 84 | 1010.5 |
| 20260508235532 | 73 | 167 | 0.0 | 0.0 | 0.00 | 0.00 | 0.00 | 84 | 1009.2 |
| 20260508235327 | 73 | 97 | 0.0 | 0.0 | 0.00 | 0.00 | 0.00 | 84 | 1010.4 |
| 20260508235027 | 73 | 53 | 0.0 | 0.0 | 0.00 | 0.00 | 0.00 | 84 | 1009.3 |
| 20260508234844 | 73 | 79 | 0.0 | 0.0 | 0.00 | 0.00 | 0.00 | 84 | 1010.5 |
| 20260508234608 | 73 | 125 | 0.0 | 0.0 | 0.00 | 0.00 | 0.00 | 84 | 1009.4 |
| 20260508234321 | 73 | 104 | 0.0 | 0.0 | 0.00 | 0.00 | 0.00 | 84 | 1010.5 |
| 20260508234050 | 73 | 111 | 0.0 | 0.0 | 0.00 | 0.00 | 0.00 | 83 | 1009.3 |
| 20260508233818 | 73 | 113 | 0.0 | 0.0 | 0.00 | 0.00 | 0.00 | 83 | 1010.7 |
| 20260508233540 | 73 | 124 | 0.0 | 0.0 | 0.00 | 0.00 | 0.00 | 83 | 1009.5 |
| 20260508233351 | 73 | 102 | 0.0 | 0.0 | 0.00 | 0.00 | 0.00 | 84 | 1010.6 |
| 20260508233002 | 73 | 79 | 0.0 | 0.0 | 0.00 | 0.00 | 0.00 | 83 | 1009.5 |
| 20260508232826 | 73 | 108 | 0.0 | 0.0 | 0.00 | 0.00 | 0.00 | 83 | 1010.7 |
| 20260508232557 | 73 | 85 | 0.0 | 0.0 | 0.00 | 0.00 | 0.00 | 83 | 1009.4 |
| 20260508232321 | 73 | 141 | 0.0 | 0.0 | 0.00 | 0.00 | 0.00 | 83 | 1010.6 |
| 20260508232049 | 73 | 116 | 0.0 | 0.0 | 0.00 | 0.00 | 0.00 | 83 | 1009.4 |
| 20260508231816 | 73 | 110 | 0.0 | 0.0 | 0.00 | 0.00 | 0.00 | 83 | 1010.7 |
| 20260508231543 | 73 | 132 | 0.0 | 0.0 | 0.00 | 0.00 | 0.00 | 83 | 1009.3 |
| 20260508231330 | 73 | 133 | 0.0 | 0.0 | 0.00 | 0.00 | 0.00 | 83 | 1010.6 |
| 20260508231006 | 73 | 118 | 0.0 | 0.0 | 0.00 | 0.00 | 0.00 | 83 | 1009.5 |
| 20260508230825 | 73 | 93 | 0.0 | 0.0 | 0.00 | 0.00 | 0.00 | 83 | 1010.7 |
| 20260508230600 | 73 | 154 | 0.0 | 0.0 | 0.00 | 0.00 | 0.00 | 83 | 1009.4 |
| 20260508230320 | 73 | 70 | 0.0 | 0.0 | 0.00 | 0.00 | 0.00 | 83 | 1010.6 |
| 20260508230058 | 73 | 30 | 0.0 | 0.0 | 0.00 | 0.00 | 0.00 | 83 | 1009.4 |
| 20260508225816 | 73 | 58 | 0.0 | 0.0 | 0.00 | 0.00 | 0.00 | 83 | 1010.6 |
| 20260508225544 | 73 | 50 | 0.0 | 0.0 | 0.00 | 0.00 | 0.00 | 83 | 1009.4 |
| 20260508225331 | 73 | 79 | 0.0 | 0.0 | 0.00 | 0.00 | 0.00 | 83 | 1010.6 |
| 20260508225036 | 73 | 78 | 0.0 | 0.0 | 0.00 | 0.00 | 0.00 | 83 | 1009.4 |
| 20260508224827 | 73 | 111 | 0.0 | 0.0 | 0.00 | 0.00 | 0.00 | 83 | 1010.6 |
| 20260508224534 | 73 | 102 | 0.0 | 0.0 | 0.00 | 0.00 | 0.00 | 83 | 1009.6 |
| 20260508224323 | 73 | 120 | 0.0 | 0.0 | 0.00 | 0.00 | 0.00 | 82 | 1010.7 |
| 20260508224025 | 73 | 108 | 0.0 | 0.0 | 0.00 | 0.00 | 0.00 | 82 | 1009.5 |
| 20260508223821 | 73 | 121 | 0.0 | 0.0 | 0.00 | 0.00 | 0.00 | 82 | 1010.7 |
| 20260508223519 | 73 | 78 | 0.0 | 0.0 | 0.00 | 0.00 | 0.00 | 82 | 1009.4 |
| 20260508223317 | 74 | 66 | 0.0 | 0.0 | 0.00 | 0.00 | 0.00 | 82 | 1010.6 |
| 20260508223024 | 73 | 90 | 0.0 | 0.0 | 0.00 | 0.00 | 0.00 | 82 | 1009.5 |
| 20260508222833 | 74 | 97 | 0.0 | 0.0 | 0.00 | 0.00 | 0.00 | 82 | 1010.5 |
| 20260508222603 | 73 | 116 | 0.0 | 0.0 | 0.00 | 0.00 | 0.00 | 82 | 1009.5 |
| 20260508222330 | 74 | 154 | 0.0 | 0.0 | 0.00 | 0.00 | 0.00 | 82 | 1010.7 |
| 20260508222054 | 73 | 115 | 0.0 | 0.0 | 0.00 | 0.00 | 0.00 | 82 | 1009.6 |
| 20260508221847 | 73 | 99 | 0.0 | 0.0 | 0.00 | 0.00 | 0.00 | 82 | 1010.7 |
| 20260508221531 | 73 | 133 | 0.0 | 0.0 | 0.00 | 0.00 | 0.00 | 83 | 1009.6 |
| 20260508221322 | 73 | 145 | 0.0 | 0.0 | 0.00 | 0.00 | 0.00 | 83 | 1010.8 |
| 20260508221008 | 73 | 141 | 0.0 | 0.0 | 0.00 | 0.00 | 0.00 | 82 | 1009.6 |
| 20260508220819 | 73 | 98 | 0.0 | 0.0 | 0.00 | 0.00 | 0.00 | 82 | 1010.7 |
| 20260508220604 | 73 | 127 | 0.0 | 0.0 | 0.00 | 0.00 | 0.00 | 82 | 1009.7 |
| 20260508220316 | 73 | 130 | 0.0 | 0.0 | 0.00 | 0.00 | 0.00 | 82 | 1010.8 |
| 20260508220054 | 73 | 102 | 0.0 | 0.0 | 0.00 | 0.00 | 0.00 | 82 | 1009.7 |
| 20260508215832 | 73 | 87 | 0.0 | 0.0 | 0.00 | 0.00 | 0.00 | 81 | 1010.9 |
| 20260508215518 | 73 | 88 | 0.0 | 0.0 | 0.00 | 0.00 | 0.00 | 82 | 1009.6 |
| 20260508215329 | 74 | 81 | 0.0 | 0.0 | 0.00 | 0.00 | 0.00 | 82 | 1010.9 |
| 20260508215008 | 73 | 137 | 0.0 | 0.0 | 0.00 | 0.00 | 0.00 | 82 | 1009.8 |
| 20260508214845 | 74 | 145 | 0.0 | 0.0 | 0.00 | 0.00 | 0.00 | 81 | 1010.9 |
| 20260508214542 | 73 | 157 | 0.0 | 0.0 | 0.00 | 0.00 | 0.00 | 81 | 1009.9 |
| 20260508214341 | 74 | 112 | 0.0 | 0.0 | 0.00 | 0.00 | 0.00 | 81 | 1011.0 |
| 20260508214014 | 73 | 106 | 0.0 | 0.0 | 0.00 | 0.00 | 0.00 | 81 | 1009.9 |
| 20260508213816 | 74 | 139 | 0.0 | 0.0 | 0.00 | 0.00 | 0.00 | 81 | 1011.0 |
| 20260508213555 | 74 | 84 | 0.0 | 0.0 | 0.00 | 0.00 | 0.00 | 81 | 1009.8 |
| 20260508213333 | 74 | 115 | 0.0 | 0.0 | 0.00 | 0.00 | 0.00 | 82 | 1011.0 |
| 20260508213059 | 73 | 159 | 0.0 | 0.0 | 0.00 | 0.00 | 0.00 | 82 | 1010.0 |
| 20260508212828 | 74 | 78 | 0.0 | 0.0 | 0.00 | 0.00 | 0.00 | 82 | 1011.0 |
| 20260508212538 | 73 | 152 | 0.0 | 0.0 | 0.00 | 0.00 | 0.00 | 81 | 1010.0 |
| 20260508212323 | 74 | 106 | 0.0 | 0.0 | 0.00 | 0.00 | 0.00 | 82 | 1011.1 |
| 20260508212033 | 73 | 129 | 0.0 | 0.0 | 0.00 | 0.00 | 0.00 | 82 | 1010.0 |
| 20260508211819 | 73 | 90 | 0.0 | 0.0 | 0.00 | 0.00 | 0.00 | 82 | 1011.1 |
| 20260508211558 | 73 | 81 | 0.0 | 0.0 | 0.00 | 0.00 | 0.00 | 82 | 1010.3 |
| 20260508211335 | 73 | 118 | 0.0 | 0.0 | 0.00 | 0.00 | 0.00 | 82 | 1011.4 |
| 20260508211029 | 73 | 162 | 0.0 | 0.0 | 0.00 | 0.00 | 0.00 | 82 | 1010.3 |
| 20260508210828 | 73 | 68 | 0.0 | 0.0 | 0.00 | 0.00 | 0.00 | 83 | 1011.4 |
| 20260508210509 | 73 | 87 | 0.0 | 0.0 | 0.00 | 0.00 | 0.00 | 82 | 1010.3 |
| 20260508210324 | 73 | 126 | 0.0 | 0.0 | 0.00 | 0.00 | 0.00 | 82 | 1011.5 |
| 20260508210002 | 72 | 119 | 0.0 | 0.0 | 0.00 | 0.00 | 0.00 | 82 | 1010.5 |
| 20260508205820 | 73 | 102 | 0.0 | 0.0 | 0.00 | 0.00 | 0.00 | 82 | 1011.5 |
| 20260508205557 | 73 | 117 | 0.0 | 0.0 | 0.00 | 0.00 | 0.00 | 82 | 1010.7 |
| 20260508205317 | 73 | 133 | 0.0 | 0.0 | 0.00 | 0.00 | 0.00 | 83 | 1011.7 |
| 20260508205053 | 72 | 163 | 0.0 | 0.0 | 0.00 | 0.00 | 0.00 | 84 | 1010.6 |
| 20260508204834 | 72 | 120 | 0.0 | 0.0 | 0.00 | 0.00 | 0.00 | 83 | 1011.6 |
| 20260508204546 | 72 | 64 | 0.0 | 0.0 | 0.00 | 0.00 | 0.00 | 83 | 1010.6 |
| 20260508204329 | 72 | 85 | 0.0 | 0.0 | 0.00 | 0.00 | 0.00 | 83 | 1011.8 |
| 20260508204039 | 72 | 131 | 0.0 | 0.0 | 0.00 | 0.00 | 0.00 | 83 | 1010.9 |
| 20260508203825 | 72 | 89 | 0.0 | 0.0 | 0.00 | 0.00 | 0.00 | 82 | 1011.9 |
| 20260508203535 | 72 | 76 | 0.0 | 0.0 | 0.00 | 0.00 | 0.00 | 82 | 1010.8 |
| 20260508203322 | 73 | 112 | 0.0 | 0.0 | 0.00 | 0.00 | 0.00 | 82 | 1011.9 |
| 20260508203032 | 72 | 86 | 0.0 | 0.0 | 0.00 | 0.00 | 0.00 | 82 | 1010.8 |
| 20260508202817 | 73 | 139 | 0.0 | 0.0 | 0.00 | 0.00 | 0.00 | 82 | 1012.0 |
| 20260508202519 | 72 | 25 | 0.0 | 0.0 | 0.00 | 0.00 | 0.00 | 83 | 1011.0 |
| 20260508202332 | 73 | 81 | 0.0 | 0.0 | 0.00 | 0.00 | 0.00 | 83 | 1012.1 |
| 20260508202103 | 72 | 158 | 0.0 | 0.0 | 0.00 | 0.00 | 0.00 | 83 | 1011.1 |
| 20260508201827 | 72 | 88 | 0.0 | 0.0 | 0.00 | 0.00 | 0.00 | 83 | 1012.2 |
| 20260508201609 | 71 | 153 | 0.0 | 0.0 | 0.00 | 0.00 | 0.00 | 84 | 1011.2 |
| 20260508201323 | 71 | 140 | 0.0 | 0.0 | 0.00 | 0.00 | 0.00 | 83 | 1012.3 |
| 20260508201025 | 71 | 160 | 0.0 | 0.0 | 0.00 | 0.00 | 0.00 | 84 | 1011.4 |
| 20260508200838 | 71 | 130 | 0.0 | 0.0 | 0.00 | 0.00 | 0.00 | 84 | 1012.4 |
| 20260508200549 | 70 | 137 | 0.0 | 0.0 | 0.00 | 0.00 | 0.00 | 83 | 1011.7 |
| 20260508200332 | 71 | 141 | 0.0 | 0.0 | 0.00 | 0.00 | 0.00 | 84 | 1012.7 |
| 20260508200045 | 70 | 110 | 0.0 | 0.0 | 0.00 | 0.00 | 0.00 | 84 | 1011.8 |
| 20260508195828 | 71 | 144 | 0.0 | 0.0 | 0.00 | 0.01 | 0.00 | 84 | 1012.7 |
| 20260508195532 | 70 | 156 | 0.0 | 0.0 | 0.00 | 0.01 | 0.00 | 84 | 1011.7 |
| 20260508195325 | 70 | 129 | 0.0 | 0.0 | 0.00 | 0.01 | 0.00 | 84 | 1012.7 |
| 20260508195023 | 70 | 83 | 0.0 | 0.0 | 0.00 | 0.01 | 0.00 | 84 | 1011.8 |
| 20260508194820 | 70 | 114 | 0.0 | 0.0 | 0.00 | 0.01 | 0.00 | 84 | 1012.7 |
| 20260508194507 | 70 | 103 | 0.0 | 0.0 | 0.00 | 0.01 | 0.00 | 84 | 1011.7 |
| 20260508194317 | 70 | 108 | 0.0 | 0.0 | 0.00 | 0.01 | 0.00 | 84 | 1012.6 |
| 20260508194101 | 70 | 89 | 0.0 | 0.0 | 0.00 | 0.01 | 0.00 | 85 | 1011.8 |
| 20260508193833 | 70 | 104 | 0.0 | 0.0 | 0.00 | 0.01 | 0.00 | 84 | 1012.8 |
| 20260508193557 | 70 | 112 | 0.0 | 0.0 | 0.00 | 0.01 | 0.00 | 84 | 1011.7 |
| 20260508193330 | 70 | 137 | 0.0 | 0.0 | 0.00 | 0.01 | 0.00 | 84 | 1012.9 |
| 20260508193054 | 70 | 106 | 0.0 | 0.0 | 0.00 | 0.01 | 0.00 | 84 | 1011.9 |
| 20260508192825 | 70 | 87 | 0.0 | 0.0 | 0.00 | 0.01 | 0.00 | 84 | 1012.9 |
| 20260508192541 | 69 | 114 | 0.0 | 0.0 | 0.00 | 0.01 | 0.00 | 84 | 1011.8 |
| 20260508192323 | 70 | 116 | 0.0 | 0.0 | 0.00 | 0.01 | 0.00 | 85 | 1012.9 |
| 20260508192036 | 69 | 92 | 0.0 | 0.0 | 0.00 | 0.01 | 0.00 | 85 | 1012.0 |
| 20260508191839 | 69 | 107 | 0.0 | 0.0 | 0.00 | 0.01 | 0.00 | 85 | 1013.1 |
| 20260508191559 | 69 | 106 | 0.0 | 0.0 | 0.00 | 0.01 | 0.00 | 85 | 1012.2 |
| 20260508191315 | 69 | 154 | 0.0 | 0.0 | 0.00 | 0.01 | 0.00 | 85 | 1013.1 |
| 20260508191051 | 69 | 97 | 0.0 | 0.0 | 0.00 | 0.01 | 0.00 | 85 | 1012.3 |
| 20260508190831 | 69 | 95 | 0.0 | 0.0 | 0.00 | 0.01 | 0.00 | 85 | 1013.2 |
| 20260508190547 | 69 | 100 | 0.0 | 0.0 | 0.00 | 0.01 | 0.00 | 85 | 1012.2 |
| 20260508190327 | 69 | 145 | 0.0 | 0.0 | 0.00 | 0.01 | 0.00 | 85 | 1013.2 |
| 20260508190049 | 69 | 140 | 0.0 | 0.0 | 0.00 | 0.01 | 0.00 | 85 | 1012.2 |
| 20260508185823 | 69 | 47 | 0.0 | 0.0 | 0.00 | 0.01 | 0.00 | 85 | 1013.2 |
| 20260508185535 | 68 | 133 | 0.0 | 0.0 | 0.00 | 0.01 | 0.00 | 85 | 1012.3 |
| 20260508185318 | 69 | 111 | 0.0 | 0.0 | 0.00 | 0.01 | 0.00 | 85 | 1013.3 |
| 20260508185103 | 68 | 128 | 0.0 | 0.0 | 0.00 | 0.01 | 0.00 | 85 | 1012.4 |
| 20260508184853 | 69 | 75 | 0.0 | 0.0 | 0.00 | 0.01 | 0.00 | 85 | 1013.3 |
| 20260508184538 | 68 | 56 | 0.0 | 0.0 | 0.00 | 0.01 | 0.00 | 85 | 1012.4 |
| 20260508184329 | 69 | 21 | 0.0 | 0.0 | 0.00 | 0.01 | 0.00 | 85 | 1013.1 |
| 20260508184031 | 68 | 44 | 0.0 | 0.0 | 0.00 | 0.01 | 0.00 | 85 | 1012.2 |
| 20260508183823 | 69 | 77 | 0.0 | 0.0 | 0.00 | 0.01 | 0.00 | 86 | 1013.2 |
| 20260508183557 | 68 | 102 | 0.0 | 0.0 | 0.00 | 0.01 | 0.00 | 85 | 1012.3 |
| 20260508183320 | 69 | 142 | 0.0 | 0.0 | 0.00 | 0.01 | 0.00 | 85 | 1013.2 |
| 20260508183054 | 68 | 87 | 0.0 | 0.0 | 0.00 | 0.01 | 0.00 | 85 | 1012.4 |
| 20260508182816 | 68 | 51 | 0.0 | 0.0 | 0.00 | 0.01 | 0.00 | 86 | 1013.2 |
| 20260508182544 | 68 | 95 | 0.0 | 0.0 | 0.00 | 0.01 | 0.00 | 86 | 1012.4 |
| 20260508182328 | 68 | 61 | 0.0 | 0.0 | 0.00 | 0.01 | 0.00 | 85 | 1013.3 |
| 20260508182035 | 68 | 91 | 0.0 | 0.0 | 0.00 | 0.01 | 0.00 | 86 | 1012.6 |
| 20260508181825 | 68 | 85 | 0.0 | 0.0 | 0.00 | 0.01 | 0.00 | 85 | 1013.5 |
| 20260508181543 | 68 | 27 | 0.0 | 0.0 | 0.00 | 0.01 | 0.00 | 86 | 1012.7 |
| 20260508181322 | 68 | 120 | 0.0 | 0.0 | 0.00 | 0.01 | 0.00 | 85 | 1013.6 |
| 20260508181020 | 68 | 120 | 0.0 | 0.0 | 0.00 | 0.01 | 0.00 | 86 | 1012.8 |
| 20260508180818 | 68 | 69 | 0.0 | 0.0 | 0.00 | 0.01 | 0.00 | 86 | 1013.7 |
| 20260508180504 | 68 | 127 | 0.0 | 0.0 | 0.00 | 0.01 | 0.00 | 86 | 1012.8 |
| 20260508180314 | 68 | 99 | 0.0 | 0.0 | 0.00 | 0.01 | 0.00 | 86 | 1013.8 |
| 20260508180110 | 68 | 163 | 0.0 | 0.0 | 0.00 | 0.01 | 0.00 | 86 | 1012.8 |
| 20260508175831 | 68 | 139 | 0.0 | 0.0 | 0.00 | 0.01 | 0.00 | 86 | 1013.7 |
| 20260508175547 | 67 | 149 | 0.0 | 0.0 | 0.00 | 0.01 | 0.00 | 86 | 1012.9 |
| 20260508175326 | 68 | 114 | 0.0 | 0.0 | 0.00 | 0.01 | 0.00 | 86 | 1013.8 |
| 20260508175042 | 67 | 21 | 0.0 | 0.0 | 0.00 | 0.01 | 0.00 | 86 | 1012.9 |
| 20260508174843 | 68 | 50 | 0.0 | 0.0 | 0.00 | 0.01 | 0.00 | 86 | 1013.8 |
| 20260508174515 | 67 | 74 | 0.0 | 0.0 | 0.00 | 0.01 | 0.00 | 86 | 1013.0 |
| 20260508174339 | 68 | 88 | 0.0 | 0.0 | 0.00 | 0.01 | 0.00 | 86 | 1013.9 |
| 20260508174041 | 67 | 110 | 0.0 | 0.0 | 0.00 | 0.01 | 0.00 | 85 | 1013.0 |
| 20260508173814 | 68 | 110 | 0.0 | 0.0 | 0.00 | 0.01 | 0.00 | 86 | 1013.9 |
| 20260508173533 | 67 | 71 | 0.0 | 0.0 | 0.00 | 0.01 | 0.00 | 86 | 1013.0 |
| 20260508173330 | 67 | 60 | 0.0 | 0.0 | 0.00 | 0.01 | 0.00 | 86 | 1013.9 |
| 20260508173030 | 67 | 77 | 0.0 | 0.0 | 0.00 | 0.01 | 0.00 | 86 | 1013.2 |
| 20260508172826 | 67 | 93 | 0.0 | 0.0 | 0.00 | 0.01 | 0.00 | 86 | 1014.1 |
| 20260508172524 | 67 | 72 | 0.0 | 0.0 | 0.00 | 0.01 | 0.00 | 86 | 1013.3 |
| 20260508172322 | 67 | 75 | 0.0 | 0.0 | 0.00 | 0.01 | 0.00 | 86 | 1014.2 |
| 20260508172003 | 67 | 30 | 0.0 | 0.0 | 0.00 | 0.01 | 0.00 | 86 | 1013.4 |
| 20260508171817 | 67 | 66 | 0.0 | 0.0 | 0.00 | 0.01 | 0.00 | 86 | 1014.3 |
| 20260508171557 | 67 | 58 | 0.0 | 0.0 | 0.00 | 0.01 | 0.00 | 86 | 1013.5 |
| 20260508171314 | 67 | 73 | 0.0 | 0.0 | 0.00 | 0.01 | 0.00 | 86 | 1014.5 |
| 20260508171049 | 66 | 85 | 0.0 | 0.0 | 0.00 | 0.01 | 0.00 | 86 | 1013.6 |
| 20260508170851 | 67 | 75 | 0.0 | 0.0 | 0.00 | 0.01 | 0.00 | 86 | 1014.5 |
| 20260508170515 | 66 | 120 | 0.0 | 0.0 | 0.00 | 0.01 | 0.00 | 86 | 1013.9 |
| 20260508170327 | 67 | 121 | 0.0 | 0.0 | 0.00 | 0.01 | 0.00 | 86 | 1014.7 |
| 20260508170007 | 67 | 87 | 0.0 | 0.0 | 0.00 | 0.01 | 0.00 | 86 | 1014.0 |
| 20260508165824 | 67 | 95 | 0.0 | 0.0 | 0.00 | 0.01 | 0.00 | 86 | 1014.8 |
| 20260508165601 | 67 | 110 | 0.0 | 0.0 | 0.00 | 0.01 | 0.00 | 86 | 1014.1 |
| 20260508165340 | 67 | 118 | 0.0 | 0.0 | 0.00 | 0.01 | 0.00 | 86 | 1014.9 |
| 20260508165049 | 67 | 73 | 0.0 | 3.5 | 0.00 | 0.01 | 0.00 | 86 | 1014.1 |
| 20260508164830 | 67 | 125 | 0.0 | 3.5 | 0.00 | 0.01 | 0.00 | 86 | 1014.9 |
| 20260508164543 | 66 | 125 | 0.0 | 5.2 | 0.00 | 0.01 | 0.00 | 86 | 1014.1 |
| 20260508164326 | 67 | 120 | 0.0 | 5.2 | 0.00 | 0.01 | 0.00 | 86 | 1014.9 |
| 20260508164031 | 66 | 108 | 1.7 | 6.1 | 0.00 | 0.01 | 0.00 | 86 | 1014.1 |
| 20260508163822 | 66 | 147 | 0.9 | 6.1 | 0.00 | 0.01 | 0.00 | 86 | 1014.9 |
| 20260508163521 | 66 | 148 | 0.9 | 6.1 | 0.00 | 0.01 | 0.00 | 86 | 1014.2 |
| 20260508163318 | 66 | 148 | 2.6 | 6.1 | 0.00 | 0.01 | 0.00 | 86 | 1015.0 |
| 20260508163017 | 66 | 97 | 1.7 | 6.1 | 0.00 | 0.01 | 0.00 | 86 | 1014.2 |
| 20260508162815 | 66 | 90 | 2.6 | 6.1 | 0.00 | 0.01 | 0.00 | 86 | 1015.0 |
| 20260508162503 | 66 | 130 | 1.7 | 6.1 | 0.00 | 0.01 | 0.00 | 86 | 1014.3 |
| 20260508162331 | 66 | 109 | 3.5 | 6.1 | 0.00 | 0.01 | 0.00 | 86 | 1015.1 |
| 20260508162058 | 65 | 197 | 1.7 | 7.0 | 0.00 | 0.01 | 0.00 | 87 | 1014.3 |
| 20260508161826 | 66 | 197 | 2.6 | 7.0 | 0.00 | 0.01 | 0.00 | 86 | 1015.1 |
| 20260508161535 | 65 | 148 | 1.7 | 7.0 | 0.00 | 0.01 | 0.00 | 86 | 1014.4 |
| 20260508161324 | 66 | 148 | 3.5 | 7.0 | 0.00 | 0.01 | 0.00 | 86 | 1015.1 |
| 20260508161023 | 65 | 122 | 2.6 | 7.0 | 0.00 | 0.01 | 0.00 | 86 | 1014.4 |
| 20260508160840 | 66 | 147 | 4.3 | 7.0 | 0.00 | 0.01 | 0.00 | 86 | 1015.2 |
| 20260508160548 | 65 | 170 | 0.9 | 5.2 | 0.00 | 0.01 | 0.00 | 86 | 1014.3 |
| 20260508160316 | 66 | 214 | 1.7 | 4.3 | 0.00 | 0.01 | 0.00 | 86 | 1015.1 |
| 20260508160041 | 65 | 185 | 2.6 | 4.3 | 0.00 | 0.01 | 0.00 | 86 | 1014.5 |
| 20260508155851 | 65 | 262 | 2.6 | 5.2 | 0.00 | 0.01 | 0.00 | 86 | 1015.2 |
| 20260508155505 | 65 | 125 | 1.7 | 4.3 | 0.00 | 0.01 | 0.00 | 87 | 1014.4 |
| 20260508155327 | 65 | 127 | 1.7 | 4.3 | 0.00 | 0.01 | 0.00 | 86 | 1015.2 |
| 20260508155059 | 65 | 149 | 2.6 | 5.2 | 0.00 | 0.01 | 0.00 | 86 | 1014.4 |
| 20260508154824 | 65 | 161 | 3.5 | 6.1 | 0.00 | 0.01 | 0.00 | 87 | 1015.1 |
| 20260508154557 | 64 | 149 | 1.7 | 6.1 | 0.00 | 0.01 | 0.00 | 87 | 1014.5 |
| 20260508154321 | 65 | 152 | 3.5 | 6.1 | 0.00 | 0.01 | 0.00 | 86 | 1015.3 |
| 20260508154049 | 64 | 167 | 1.7 | 4.3 | 0.00 | 0.01 | 0.00 | 86 | 1014.5 |
| 20260508153817 | 64 | 215 | 1.7 | 3.5 | 0.00 | 0.01 | 0.00 | 86 | 1015.1 |
| 20260508153537 | 64 | 214 | 1.7 | 7.0 | 0.00 | 0.01 | 0.00 | 86 | 1014.4 |
| 20260508153329 | 64 | 165 | 2.6 | 7.0 | 0.00 | 0.01 | 0.00 | 86 | 1015.2 |
| 20260508153031 | 63 | 166 | 2.6 | 7.0 | 0.00 | 0.01 | 0.00 | 86 | 1014.4 |
| 20260508152845 | 64 | 147 | 3.5 | 7.0 | 0.00 | 0.01 | 0.00 | 86 | 1015.3 |
| 20260508152500 | 63 | 161 | 4.3 | 5.2 | 0.00 | 0.01 | 0.00 | 86 | 1014.5 |
| 20260508152320 | 64 | 135 | 3.5 | 6.1 | 0.00 | 0.01 | 0.00 | 87 | 1015.1 |
| 20260508152055 | 63 | 145 | 2.6 | 4.3 | 0.00 | 0.01 | 0.00 | 87 | 1014.4 |
| 20260508151817 | 63 | 187 | 2.6 | 5.2 | 0.00 | 0.01 | 0.00 | 87 | 1015.1 |
| 20260508151547 | 63 | 141 | 3.5 | 5.2 | 0.00 | 0.01 | 0.00 | 87 | 1014.4 |
| 20260508151332 | 63 | 162 | 3.5 | 5.2 | 0.00 | 0.01 | 0.00 | 87 | 1015.1 |
| 20260508151039 | 62 | 162 | 1.7 | 7.0 | 0.00 | 0.01 | 0.00 | 87 | 1014.4 |
| 20260508150829 | 63 | 162 | 4.3 | 7.0 | 0.00 | 0.01 | 0.00 | 87 | 1015.1 |
| 20260508150533 | 62 | 165 | 3.5 | 7.0 | 0.00 | 0.01 | 0.00 | 87 | 1014.4 |
| 20260508150326 | 63 | 156 | 5.2 | 7.0 | 0.00 | 0.01 | 0.00 | 87 | 1015.0 |
| 20260508150027 | 62 | 162 | 2.6 | 5.2 | 0.00 | 0.01 | 0.00 | 87 | 1014.4 |
| 20260508145824 | 63 | 188 | 3.5 | 5.2 | 0.00 | 0.01 | 0.00 | 87 | 1015.1 |
| 20260508145523 | 62 | 133 | 1.7 | 6.1 | 0.00 | 0.01 | 0.00 | 87 | 1014.4 |
| 20260508145320 | 62 | 149 | 3.5 | 6.1 | 0.00 | 0.01 | 0.00 | 87 | 1015.0 |
| 20260508145004 | 62 | 149 | 3.5 | 7.0 | 0.00 | 0.01 | 0.00 | 87 | 1014.3 |
| 20260508144817 | 62 | 169 | 4.3 | 7.0 | 0.00 | 0.01 | 0.00 | 87 | 1015.0 |
| 20260508144601 | 62 | 156 | 2.6 | 7.0 | 0.00 | 0.01 | 0.00 | 87 | 1014.3 |
| 20260508144314 | 62 | 164 | 4.3 | 7.0 | 0.00 | 0.01 | 0.00 | 88 | 1015.0 |
| 20260508144053 | 62 | 130 | 0.0 | 2.6 | 0.00 | 0.01 | 0.00 | 88 | 1014.4 |
| 20260508143829 | 62 | 130 | 0.9 | 2.6 | 0.00 | 0.01 | 0.00 | 88 | 1014.9 |
| 20260508143545 | 61 | 130 | 0.9 | 2.6 | 0.00 | 0.01 | 0.00 | 88 | 1014.2 |
| 20260508143324 | 61 | 37 | 0.9 | 3.5 | 0.00 | 0.01 | 0.00 | 88 | 1015.0 |
| 20260508143039 | 61 | 37 | 0.0 | 4.3 | 0.00 | 0.01 | 0.00 | 89 | 1014.3 |
| 20260508142839 | 61 | 37 | 0.0 | 4.3 | 0.00 | 0.01 | 0.00 | 88 | 1014.8 |
| 20260508142527 | 60 | 4 | 2.6 | 4.3 | 0.00 | 0.01 | 0.00 | 88 | 1014.0 |
| 20260508142330 | 61 | 34 | 2.6 | 3.5 | 0.00 | 0.01 | 0.00 | 89 | 1014.6 |
| 20260508142011 | 60 | 22 | 0.9 | 2.6 | 0.00 | 0.01 | 0.00 | 89 | 1014.0 |
| 20260508141826 | 60 | 23 | 1.7 | 2.6 | 0.00 | 0.01 | 0.00 | 89 | 1014.9 |
| 20260508141509 | 60 | 22 | 0.0 | 2.6 | 0.00 | 0.01 | 0.00 | 89 | 1014.6 |
| 20260508141322 | 60 | 22 | 0.0 | 2.6 | 0.00 | 0.01 | 0.00 | 89 | 1015.3 |
| 20260508141056 | 60 | 19 | 0.9 | 2.6 | 0.00 | 0.01 | 0.00 | 89 | 1014.7 |
| 20260508140819 | 60 | 18 | 1.7 | 2.6 | 0.00 | 0.01 | 0.00 | 89 | 1015.5 |
| 20260508140553 | 59 | 101 | 0.9 | 2.6 | 0.00 | 0.01 | 0.00 | 89 | 1014.8 |
| 20260508140316 | 60 | 101 | 0.9 | 2.6 | 0.00 | 0.01 | 0.00 | 90 | 1015.5 |
| 20260508140048 | 59 | 101 | 0.0 | 1.7 | 0.00 | 0.01 | 0.00 | 90 | 1014.9 |
| 20260508135830 | 60 | 101 | 0.0 | 1.7 | 0.00 | 0.01 | 0.00 | 90 | 1015.5 |
| 20260508135533 | 59 | 101 | 0.0 | 1.7 | 0.00 | 0.01 | 0.00 | 90 | 1014.9 |
| 20260508135326 | 59 | 101 | 0.0 | 1.7 | 0.00 | 0.01 | 0.00 | 90 | 1015.6 |
| 20260508135026 | 59 | 101 | 0.0 | 1.7 | 0.00 | 0.01 | 0.00 | 90 | 1015.0 |
| 20260508134823 | 59 | 101 | 0.9 | 1.7 | 0.00 | 0.01 | 0.00 | 90 | 1015.6 |
| 20260508134511 | 58 | 101 | 0.0 | 0.9 | 0.00 | 0.01 | 0.00 | 90 | 1014.9 |
| 20260508134339 | 59 | 101 | 0.0 | 0.9 | 0.00 | 0.01 | 0.00 | 90 | 1015.6 |
| 20260508134040 | 58 | 101 | 0.0 | 0.9 | 0.00 | 0.01 | 0.00 | 90 | 1014.9 |
| 20260508133834 | 59 | 101 | 0.0 | 1.7 | 0.00 | 0.01 | 0.00 | 90 | 1015.7 |
| 20260508133532 | 58 | 101 | 0.0 | 1.7 | 0.00 | 0.01 | 0.00 | 90 | 1015.2 |
| 20260508133330 | 58 | 101 | 0.0 | 1.7 | 0.00 | 0.01 | 0.00 | 90 | 1015.9 |
| 20260508133021 | 58 | 101 | 0.0 | 0.9 | 0.00 | 0.01 | 0.00 | 90 | 1015.3 |
| 20260508132827 | 58 | 101 | 0.0 | 0.9 | 0.00 | 0.01 | 0.00 | 90 | 1015.9 |
| 20260508132514 | 58 | 102 | 0.0 | 0.9 | 0.00 | 0.01 | 0.00 | 90 | 1015.2 |
| 20260508132322 | 58 | 101 | 0.0 | 0.9 | 0.00 | 0.01 | 0.00 | 90 | 1015.9 |
| 20260508132001 | 58 | 102 | 0.0 | 0.9 | 0.00 | 0.01 | 0.00 | 90 | 1015.3 |
| 20260508131839 | 58 | 101 | 0.0 | 1.7 | 0.00 | 0.01 | 0.00 | 90 | 1015.9 |
| 20260508131535 | 58 | 101 | 0.0 | 1.7 | 0.00 | 0.01 | 0.00 | 90 | 1015.3 |
| 20260508131333 | 58 | 101 | 0.0 | 1.7 | 0.00 | 0.01 | 0.00 | 90 | 1016.0 |
| 20260508131014 | 58 | 101 | 0.9 | 1.7 | 0.00 | 0.01 | 0.00 | 90 | 1015.3 |
| 20260508130830 | 58 | 101 | 0.9 | 1.7 | 0.00 | 0.01 | 0.00 | 90 | 1016.0 |
| 20260508130506 | 58 | 101 | 0.0 | 0.9 | 0.00 | 0.01 | 0.00 | 90 | 1015.4 |
| 20260508130326 | 58 | 101 | 0.9 | 0.9 | 0.00 | 0.01 | 0.00 | 90 | 1016.1 |
| 20260508130001 | 58 | 101 | 0.0 | 1.7 | 0.00 | 0.01 | 0.00 | 90 | 1015.5 |
| 20260508125822 | 58 | 101 | 0.0 | 1.7 | 0.00 | 0.01 | 0.00 | 90 | 1016.1 |
| 20260508125557 | 57 | 101 | 0.0 | 1.7 | 0.00 | 0.01 | 0.00 | 90 | 1015.6 |
| 20260508125317 | 58 | 101 | 0.0 | 1.7 | 0.00 | 0.01 | 0.00 | 90 | 1016.3 |
| 20260508125031 | 57 | 101 | 0.0 | 0.9 | 0.00 | 0.01 | 0.00 | 90 | 1015.6 |
| 20260508124833 | 58 | 101 | 0.0 | 1.7 | 0.00 | 0.01 | 0.00 | 90 | 1016.4 |
| 20260508124514 | 57 | 101 | 0.0 | 1.7 | 0.00 | 0.01 | 0.00 | 90 | 1015.8 |
| 20260508124328 | 58 | 101 | 0.0 | 1.7 | 0.00 | 0.01 | 0.00 | 90 | 1016.4 |
| 20260508124007 | 57 | 101 | 0.0 | 2.6 | 0.00 | 0.01 | 0.00 | 90 | 1015.5 |
| 20260508123822 | 58 | 101 | 0.9 | 2.6 | 0.00 | 0.01 | 0.00 | 90 | 1016.1 |
| 20260508123601 | 57 | 101 | 0.9 | 4.3 | 0.00 | 0.01 | 0.00 | 90 | 1015.4 |
| 20260508123340 | 58 | 152 | 0.9 | 4.3 | 0.00 | 0.01 | 0.00 | 90 | 1016.1 |
| 20260508123032 | 57 | 152 | 1.7 | 4.3 | 0.00 | 0.01 | 0.00 | 90 | 1015.7 |
| 20260508122815 | 58 | 182 | 0.9 | 3.5 | 0.00 | 0.01 | 0.00 | 90 | 1016.3 |
| 20260508122512 | 57 | 181 | 0.9 | 3.5 | 0.00 | 0.01 | 0.00 | 90 | 1015.6 |
| 20260508122328 | 58 | 182 | 1.7 | 4.3 | 0.00 | 0.01 | 0.00 | 91 | 1016.3 |
| 20260508122007 | 57 | 182 | 1.7 | 4.3 | 0.00 | 0.01 | 0.00 | 91 | 1015.7 |
| 20260508121825 | 58 | 182 | 2.6 | 4.3 | 0.00 | 0.01 | 0.00 | 91 | 1016.2 |
| 20260508121610 | 57 | 182 | 2.6 | 4.3 | 0.00 | 0.01 | 0.00 | 91 | 1015.5 |
| 20260508121341 | 57 | 195 | 2.6 | 3.5 | 0.00 | 0.01 | 0.00 | 91 | 1016.1 |
| 20260508121033 | 57 | 149 | 0.9 | 1.7 | 0.00 | 0.01 | 0.00 | 91 | 1015.4 |
| 20260508120817 | 57 | 149 | 0.9 | 1.7 | 0.00 | 0.01 | 0.00 | 91 | 1015.9 |
| 20260508120514 | 57 | 149 | 0.0 | 0.9 | 0.00 | 0.01 | 0.00 | 91 | 1015.2 |
| 20260508120354 | 57 | 149 | 0.0 | 0.9 | 0.00 | 0.01 | 0.00 | 91 | 1015.9 |
| 20260508120055 | 57 | 149 | 0.0 | 1.7 | 0.00 | 0.01 | 0.00 | 91 | 1015.1 |
| 20260508115828 | 57 | 149 | 0.0 | 1.7 | 0.00 | 0.01 | 0.00 | 91 | 1015.8 |
| 20260508115526 | 57 | 149 | 0.0 | 1.7 | 0.00 | 0.01 | 0.00 | 91 | 1015.1 |
| 20260508115324 | 57 | 149 | 0.0 | 2.6 | 0.00 | 0.01 | 0.00 | 91 | 1015.7 |
| 20260508115050 | 57 | 149 | 0.9 | 4.3 | 0.00 | 0.01 | 0.00 | 91 | 1015.1 |
| 20260508114841 | 57 | 149 | 0.9 | 4.3 | 0.00 | 0.01 | 0.00 | 91 | 1015.7 |
| 20260508114522 | 57 | 149 | 1.7 | 4.3 | 0.00 | 0.01 | 0.00 | 91 | 1015.2 |
| 20260508114316 | 57 | 149 | 1.7 | 2.6 | 0.00 | 0.01 | 0.00 | 91 | 1015.8 |
| 20260508114011 | 57 | 149 | 0.9 | 2.6 | 0.00 | 0.01 | 0.00 | 91 | 1015.1 |
| 20260508113852 | 57 | 149 | 1.7 | 2.6 | 0.00 | 0.01 | 0.00 | 91 | 1015.8 |
| 20260508113542 | 57 | 149 | 0.9 | 2.6 | 0.00 | 0.01 | 0.00 | 91 | 1015.0 |
| 20260508113347 | 57 | 149 | 1.7 | 2.6 | 0.00 | 0.01 | 0.00 | 91 | 1015.6 |
| 20260508113005 | 57 | 149 | 1.7 | 2.6 | 0.00 | 0.01 | 0.00 | 91 | 1015.0 |
| 20260508112821 | 57 | 149 | 1.7 | 2.6 | 0.00 | 0.01 | 0.00 | 91 | 1015.7 |
| 20260508112536 | 57 | 149 | 0.9 | 2.6 | 0.00 | 0.01 | 0.00 | 91 | 1015.0 |
| 20260508112317 | 57 | 149 | 0.9 | 4.3 | 0.00 | 0.01 | 0.00 | 91 | 1015.5 |
| 20260508112032 | 57 | 149 | 0.0 | 4.3 | 0.00 | 0.01 | 0.00 | 91 | 1015.0 |
| 20260508111854 | 57 | 149 | 0.9 | 4.3 | 0.00 | 0.01 | 0.00 | 91 | 1015.6 |
| 20260508111559 | 57 | 149 | 2.6 | 4.3 | 0.00 | 0.01 | 0.00 | 91 | 1015.1 |
| 20260508111329 | 57 | 149 | 2.6 | 4.3 | 0.00 | 0.01 | 0.00 | 91 | 1015.8 |
| 20260508111045 | 57 | 149 | 0.9 | 2.6 | 0.00 | 0.01 | 0.00 | 91 | 1015.1 |
| 20260508110825 | 57 | 149 | 0.9 | 1.7 | 0.00 | 0.01 | 0.00 | 91 | 1015.7 |
| 20260508110538 | 57 | 149 | 0.0 | 2.6 | 0.00 | 0.01 | 0.00 | 91 | 1015.0 |
| 20260508110337 | 57 | 149 | 0.9 | 2.6 | 0.00 | 0.01 | 0.00 | 91 | 1015.6 |
| 20260508110007 | 57 | 149 | 0.9 | 2.6 | 0.00 | 0.01 | 0.00 | 91 | 1015.1 |
| 20260508105853 | 58 | 150 | 1.7 | 2.6 | 0.00 | 0.01 | 0.00 | 91 | 1015.9 |
| 20260508105541 | 57 | 149 | 1.7 | 2.6 | 0.00 | 0.01 | 0.00 | 91 | 1015.3 |
| 20260508105328 | 57 | 149 | 1.7 | 2.6 | 0.00 | 0.01 | 0.00 | 91 | 1016.0 |
| 20260508105033 | 57 | 120 | 0.9 | 2.6 | 0.00 | 0.01 | 0.00 | 91 | 1015.2 |
| 20260508104824 | 57 | 35 | 0.9 | 2.6 | 0.00 | 0.01 | 0.00 | 91 | 1015.9 |
| 20260508104529 | 57 | 35 | 0.0 | 2.6 | 0.00 | 0.01 | 0.00 | 91 | 1015.3 |
| 20260508104320 | 57 | 35 | 0.9 | 2.6 | 0.00 | 0.01 | 0.00 | 91 | 1015.9 |
| 20260508104020 | 57 | 35 | 0.9 | 2.6 | 0.00 | 0.01 | 0.00 | 91 | 1015.5 |
| 20260508103816 | 57 | 35 | 0.0 | 2.6 | 0.00 | 0.01 | 0.00 | 91 | 1016.1 |
| 20260508103514 | 57 | 35 | 0.0 | 2.6 | 0.00 | 0.01 | 0.00 | 91 | 1015.5 |
| 20260508103332 | 57 | 35 | 0.9 | 2.6 | 0.00 | 0.01 | 0.00 | 91 | 1016.0 |
| 20260508103131 | 57 | 35 | 0.0 | 0.9 | 0.00 | 0.01 | 0.00 | 91 | 1015.5 |
| 20260508102849 | 57 | 35 | 0.0 | 0.9 | 0.00 | 0.01 | 0.00 | 91 | 1016.3 |
| 20260508102529 | 57 | 35 | 0.0 | 1.7 | 0.00 | 0.01 | 0.00 | 91 | 1015.8 |
| 20260508102324 | 57 | 35 | 0.0 | 1.7 | 0.00 | 0.01 | 0.00 | 91 | 1016.5 |
| 20260508102022 | 57 | 35 | 0.0 | 2.6 | 0.00 | 0.01 | 0.00 | 91 | 1015.9 |
| 20260508101819 | 57 | 35 | 0.9 | 2.6 | 0.00 | 0.01 | 0.00 | 91 | 1016.5 |
| 20260508101514 | 57 | 35 | 0.0 | 2.6 | 0.00 | 0.01 | 0.00 | 91 | 1015.8 |
| 20260508101317 | 58 | 35 | 0.9 | 2.6 | 0.00 | 0.01 | 0.00 | 91 | 1016.4 |
| 20260508101101 | 57 | 35 | 0.0 | 1.7 | 0.00 | 0.01 | 0.00 | 91 | 1015.9 |
| 20260508100833 | 58 | 35 | 0.9 | 1.7 | 0.00 | 0.01 | 0.00 | 91 | 1016.5 |
| 20260508100553 | 57 | 35 | 0.0 | 1.7 | 0.00 | 0.01 | 0.00 | 91 | 1016.0 |
| 20260508100329 | 57 | 35 | 0.0 | 0.0 | 0.00 | 0.01 | 0.00 | 91 | 1016.7 |
| 20260508100046 | 57 | 35 | 0.0 | 0.9 | 0.00 | 0.01 | 0.00 | 91 | 1016.2 |
| 20260508095826 | 57 | 35 | 0.0 | 0.9 | 0.00 | 0.01 | 0.00 | 91 | 1016.7 |
| 20260508095540 | 57 | 35 | 0.0 | 1.7 | 0.00 | 0.01 | 0.00 | 91 | 1016.2 |
| 20260508095323 | 57 | 35 | 0.0 | 1.7 | 0.00 | 0.01 | 0.00 | 91 | 1016.7 |
| 20260508095029 | 57 | 35 | 0.0 | 1.7 | 0.00 | 0.01 | 0.00 | 91 | 1016.1 |
| 20260508094819 | 57 | 35 | 0.9 | 1.7 | 0.00 | 0.01 | 0.00 | 91 | 1016.8 |
| 20260508094522 | 57 | 35 | 0.0 | 1.7 | 0.00 | 0.01 | 0.00 | 91 | 1016.4 |
| 20260508094315 | 57 | 35 | 0.0 | 0.9 | 0.00 | 0.01 | 0.00 | 91 | 1016.9 |
| 20260508094014 | 57 | 35 | 0.0 | 0.9 | 0.00 | 0.01 | 0.00 | 91 | 1016.3 |
| 20260508093832 | 57 | 35 | 0.0 | 1.7 | 0.00 | 0.01 | 0.00 | 91 | 1016.8 |
| 20260508093505 | 57 | 35 | 0.0 | 1.7 | 0.00 | 0.01 | 0.00 | 91 | 1016.3 |
| 20260508093328 | 57 | 35 | 0.0 | 1.7 | 0.00 | 0.01 | 0.00 | 91 | 1016.8 |
| 20260508093056 | 57 | 35 | 0.0 | 1.7 | 0.00 | 0.01 | 0.00 | 91 | 1016.2 |
| 20260508092823 | 57 | 35 | 0.0 | 0.0 | 0.00 | 0.01 | 0.00 | 91 | 1016.9 |
| 20260508092548 | 56 | 35 | 0.0 | 0.9 | 0.00 | 0.01 | 0.00 | 91 | 1016.3 |
| 20260508092320 | 57 | 35 | 0.0 | 0.9 | 0.00 | 0.01 | 0.00 | 91 | 1016.9 |
| 20260508092042 | 56 | 35 | 0.0 | 0.9 | 0.00 | 0.01 | 0.00 | 91 | 1016.3 |
| 20260508091817 | 57 | 35 | 0.0 | 1.7 | 0.00 | 0.01 | 0.00 | 91 | 1016.8 |
| 20260508091536 | 56 | 35 | 0.0 | 1.7 | 0.00 | 0.01 | 0.00 | 91 | 1016.2 |
| 20260508091354 | 57 | 35 | 0.0 | 2.6 | 0.00 | 0.01 | 0.00 | 91 | 1016.6 |
| 20260508091101 | 56 | 35 | 0.0 | 3.5 | 0.00 | 0.01 | 0.00 | 91 | 1016.1 |
| 20260508090851 | 57 | 35 | 0.9 | 3.5 | 0.00 | 0.01 | 0.00 | 91 | 1016.6 |
| 20260508090530 | 56 | 35 | 0.9 | 3.5 | 0.00 | 0.01 | 0.00 | 91 | 1015.8 |
| 20260508090347 | 57 | 35 | 1.7 | 3.5 | 0.00 | 0.01 | 0.00 | 91 | 1016.5 |
| 20260508090107 | 56 | 35 | 0.0 | 2.6 | 0.00 | 0.01 | 0.00 | 91 | 1016.1 |
| 20260508085842 | 57 | 35 | 1.7 | 3.5 | 0.00 | 0.01 | 0.00 | 91 | 1016.7 |
| 20260508085526 | 56 | 294 | 0.0 | 3.5 | 0.00 | 0.01 | 0.00 | 91 | 1016.3 |
| 20260508085337 | 57 | 294 | 1.7 | 3.5 | 0.00 | 0.01 | 0.00 | 91 | 1017.0 |
| 20260508085050 | 56 | 324 | 1.7 | 3.5 | 0.00 | 0.01 | 0.00 | 91 | 1016.4 |
| 20260508084827 | 57 | 4 | 1.7 | 2.6 | 0.00 | 0.01 | 0.00 | 91 | 1016.9 |
| 20260508084546 | 56 | 4 | 0.0 | 0.0 | 0.00 | 0.01 | 0.00 | 91 | 1016.5 |
| 20260508084324 | 56 | 4 | 0.0 | 0.0 | 0.00 | 0.01 | 0.00 | 91 | 1017.0 |
| 20260508084039 | 56 | 4 | 0.0 | 0.0 | 0.00 | 0.01 | 0.00 | 91 | 1016.5 |
| 20260508083821 | 56 | 4 | 0.0 | 0.0 | 0.00 | 0.01 | 0.00 | 91 | 1017.0 |
| 20260508083529 | 56 | 4 | 0.0 | 0.0 | 0.00 | 0.01 | 0.00 | 91 | 1016.4 |
| 20260508083317 | 56 | 4 | 0.0 | 0.0 | 0.00 | 0.01 | 0.00 | 91 | 1016.9 |
| 20260508083020 | 56 | 4 | 0.0 | 0.0 | 0.00 | 0.01 | 0.00 | 91 | 1016.3 |
| 20260508082814 | 56 | 4 | 0.0 | 0.0 | 0.00 | 0.01 | 0.00 | 91 | 1016.9 |
| 20260508082546 | 56 | 4 | 0.0 | 0.0 | 0.00 | 0.01 | 0.00 | 91 | 1016.2 |
| 20260508082331 | 56 | 4 | 0.0 | 0.0 | 0.00 | 0.01 | 0.00 | 91 | 1016.7 |
| 20260508082040 | 55 | 4 | 0.0 | 0.0 | 0.00 | 0.01 | 0.00 | 91 | 1015.9 |
| 20260508081827 | 56 | 4 | 0.0 | 1.7 | 0.00 | 0.01 | 0.00 | 91 | 1016.5 |
| 20260508081536 | 55 | 4 | 0.0 | 2.6 | 0.00 | 0.01 | 0.00 | 91 | 1016.0 |
| 20260508081323 | 56 | 4 | 0.0 | 2.6 | 0.00 | 0.01 | 0.00 | 91 | 1016.5 |
| 20260508081029 | 55 | 4 | 0.9 | 2.6 | 0.00 | 0.01 | 0.00 | 91 | 1015.8 |
| 20260508080821 | 56 | 4 | 1.7 | 2.6 | 0.00 | 0.01 | 0.00 | 91 | 1016.4 |
| 20260508080521 | 55 | 4 | 0.0 | 1.7 | 0.00 | 0.01 | 0.00 | 91 | 1015.6 |
| 20260508080317 | 55 | 4 | 0.9 | 0.9 | 0.00 | 0.01 | 0.00 | 91 | 1016.3 |
| 20260508075831 | 55 | 4 | 0.0 | 0.0 | 0.00 | 0.01 | 0.00 | 91 | 1016.1 |
| 20260508075553 | 55 | 4 | 0.0 | 0.9 | 0.00 | 0.01 | 0.00 | 91 | 1015.4 |
| 20260508075328 | 55 | 4 | 0.0 | 0.9 | 0.00 | 0.01 | 0.00 | 91 | 1016.0 |
| 20260508075045 | 55 | 4 | 0.0 | 0.9 | 0.00 | 0.01 | 0.00 | 91 | 1015.3 |
| 20260508074824 | 55 | 4 | 0.0 | 0.9 | 0.00 | 0.01 | 0.00 | 91 | 1016.0 |
| 20260508074538 | 55 | 4 | 0.0 | 0.0 | 0.00 | 0.01 | 0.00 | 91 | 1015.2 |
| 20260508074320 | 55 | 4 | 0.0 | 0.0 | 0.00 | 0.01 | 0.00 | 91 | 1015.9 |
| 20260508074028 | 55 | 4 | 0.0 | 0.0 | 0.00 | 0.01 | 0.00 | 91 | 1015.3 |
| 20260508073816 | 55 | 4 | 0.0 | 0.0 | 0.00 | 0.01 | 0.00 | 90 | 1016.0 |
| 20260508073523 | 54 | 4 | 0.0 | 0.9 | 0.00 | 0.01 | 0.00 | 90 | 1015.4 |
| 20260508073332 | 55 | 4 | 0.0 | 0.9 | 0.00 | 0.01 | 0.00 | 90 | 1016.0 |
| 20260508073008 | 55 | 4 | 0.0 | 0.9 | 0.00 | 0.01 | 0.00 | 90 | 1015.4 |
| 20260508072828 | 55 | 4 | 0.0 | 0.9 | 0.00 | 0.01 | 0.00 | 90 | 1016.1 |
| 20260508072507 | 54 | 4 | 0.0 | 0.9 | 0.00 | 0.01 | 0.00 | 90 | 1015.5 |
| 20260508072324 | 55 | 4 | 0.0 | 0.9 | 0.00 | 0.01 | 0.00 | 90 | 1016.1 |
| 20260508072102 | 54 | 4 | 0.0 | 0.0 | 0.00 | 0.01 | 0.00 | 90 | 1015.5 |
| 20260508071819 | 55 | 4 | 0.0 | 0.0 | 0.00 | 0.01 | 0.00 | 90 | 1016.2 |
| 20260508071555 | 55 | 4 | 0.0 | 0.0 | 0.00 | 0.01 | 0.00 | 90 | 1015.6 |
| 20260508071315 | 55 | 4 | 0.0 | 0.0 | 0.00 | 0.01 | 0.00 | 90 | 1016.1 |
| 20260508071046 | 55 | 4 | 0.0 | 0.0 | 0.00 | 0.01 | 0.00 | 90 | 1015.5 |
| 20260508070831 | 55 | 4 | 0.0 | 0.0 | 0.00 | 0.01 | 0.00 | 90 | 1016.0 |
| 20260508070538 | 55 | 4 | 0.0 | 0.0 | 0.00 | 0.01 | 0.00 | 90 | 1015.3 |
| 20260508070326 | 55 | 4 | 0.0 | 0.0 | 0.00 | 0.01 | 0.00 | 90 | 1016.0 |
| 20260508070030 | 55 | 4 | 0.0 | 0.0 | 0.00 | 0.01 | 0.00 | 90 | 1015.4 |
| 20260508065822 | 56 | 4 | 0.0 | 0.0 | 0.00 | 0.01 | 0.00 | 90 | 1016.1 |
| 20260508065524 | 55 | 4 | 0.0 | 0.0 | 0.00 | 0.01 | 0.00 | 90 | 1015.5 |
| 20260508065319 | 56 | 4 | 0.0 | 0.0 | 0.00 | 0.01 | 0.00 | 90 | 1016.3 |
| 20260508065018 | 55 | 4 | 0.0 | 0.0 | 0.00 | 0.01 | 0.00 | 90 | 1015.7 |
| 20260508064815 | 56 | 4 | 0.0 | 0.0 | 0.00 | 0.01 | 0.00 | 90 | 1016.4 |
| 20260508064615 | 55 | 4 | 0.0 | 0.0 | 0.00 | 0.01 | 0.00 | 90 | 1015.9 |
| 20260508064333 | 56 | 4 | 0.0 | 0.0 | 0.00 | 0.01 | 0.00 | 90 | 1016.6 |
| 20260508064054 | 55 | 4 | 0.0 | 0.0 | 0.00 | 0.01 | 0.00 | 90 | 1016.0 |
| 20260508063827 | 56 | 4 | 0.0 | 0.0 | 0.00 | 0.01 | 0.00 | 90 | 1016.6 |
| 20260508063544 | 55 | 4 | 0.0 | 0.0 | 0.00 | 0.01 | 0.00 | 90 | 1015.9 |
| 20260508063324 | 56 | 4 | 0.0 | 0.0 | 0.00 | 0.01 | 0.00 | 90 | 1016.6 |
| 20260508063039 | 55 | 4 | 0.0 | 0.0 | 0.00 | 0.01 | 0.00 | 90 | 1016.0 |
| 20260508062840 | 56 | 4 | 0.0 | 0.0 | 0.00 | 0.01 | 0.00 | 89 | 1016.7 |
| 20260508062504 | 55 | 4 | 0.0 | 0.0 | 0.00 | 0.01 | 0.00 | 89 | 1016.2 |
| 20260508062336 | 56 | 4 | 0.0 | 0.0 | 0.00 | 0.01 | 0.00 | 90 | 1016.7 |
| 20260508062036 | 55 | 4 | 0.0 | 0.0 | 0.00 | 0.01 | 0.00 | 90 | 1016.2 |
| 20260508061829 | 56 | 4 | 0.0 | 0.0 | 0.00 | 0.01 | 0.00 | 89 | 1016.8 |
| 20260508061534 | 55 | 4 | 0.0 | 0.9 | 0.00 | 0.01 | 0.00 | 89 | 1016.1 |
| 20260508061326 | 56 | 4 | 0.0 | 1.7 | 0.00 | 0.01 | 0.00 | 89 | 1016.7 |
| 20260508061027 | 55 | 4 | 0.0 | 1.7 | 0.00 | 0.01 | 0.00 | 89 | 1016.1 |
| 20260508060824 | 56 | 4 | 0.0 | 1.7 | 0.00 | 0.01 | 0.00 | 89 | 1016.9 |
| 20260508060518 | 56 | 4 | 0.0 | 1.7 | 0.00 | 0.01 | 0.00 | 89 | 1016.3 |
| 20260508060319 | 56 | 4 | 0.0 | 0.0 | 0.00 | 0.01 | 0.00 | 89 | 1016.9 |
| 20260508060104 | 56 | 4 | 0.0 | 0.0 | 0.00 | 0.01 | 0.00 | 89 | 1016.3 |
| 20260508055832 | 56 | 4 | 0.0 | 0.0 | 0.00 | 0.01 | 0.00 | 89 | 1016.8 |
| 20260508055540 | 56 | 4 | 0.0 | 0.9 | 0.00 | 0.01 | 0.00 | 89 | 1016.3 |
| 20260508055329 | 56 | 4 | 0.0 | 0.9 | 0.00 | 0.01 | 0.00 | 89 | 1016.9 |
| 20260508055032 | 56 | 4 | 0.0 | 0.9 | 0.00 | 0.01 | 0.00 | 89 | 1016.3 |
| 20260508054823 | 56 | 4 | 0.0 | 0.9 | 0.00 | 0.01 | 0.00 | 89 | 1017.0 |
| 20260508054526 | 56 | 4 | 0.0 | 0.9 | 0.00 | 0.01 | 0.00 | 89 | 1016.5 |
| 20260508054319 | 56 | 4 | 0.0 | 0.9 | 0.00 | 0.01 | 0.00 | 89 | 1017.1 |
| 20260508054021 | 56 | 4 | 0.0 | 1.7 | 0.00 | 0.01 | 0.00 | 89 | 1016.5 |
| 20260508053815 | 56 | 4 | 0.0 | 1.7 | 0.00 | 0.01 | 0.00 | 89 | 1017.0 |
| 20260508053506 | 56 | 4 | 0.0 | 1.7 | 0.00 | 0.01 | 0.00 | 90 | 1016.4 |
| 20260508053331 | 56 | 4 | 0.9 | 1.7 | 0.00 | 0.01 | 0.00 | 90 | 1017.2 |
| 20260508053102 | 56 | 4 | 0.0 | 1.7 | 0.00 | 0.01 | 0.00 | 89 | 1016.4 |
| 20260508052828 | 56 | 4 | 0.0 | 2.6 | 0.00 | 0.01 | 0.00 | 89 | 1017.0 |
| 20260508052554 | 56 | 4 | 0.0 | 2.6 | 0.00 | 0.01 | 0.00 | 89 | 1016.2 |
| 20260508052325 | 56 | 4 | 0.9 | 2.6 | 0.00 | 0.01 | 0.00 | 89 | 1016.9 |
| 20260508052047 | 56 | 4 | 0.9 | 2.6 | 0.00 | 0.01 | 0.00 | 89 | 1016.3 |
| 20260508051820 | 56 | 4 | 0.0 | 0.0 | 0.00 | 0.01 | 0.00 | 89 | 1017.0 |
| 20260508051546 | 56 | 4 | 0.0 | 0.0 | 0.00 | 0.01 | 0.00 | 89 | 1016.5 |
| 20260508051316 | 56 | 4 | 0.0 | 0.0 | 0.00 | 0.01 | 0.00 | 89 | 1017.2 |
| 20260508051030 | 56 | 4 | 0.0 | 0.0 | 0.00 | 0.01 | 0.00 | 89 | 1016.5 |
| 20260508050834 | 56 | 4 | 0.0 | 0.0 | 0.00 | 0.01 | 0.00 | 89 | 1017.2 |
| 20260508050513 | 56 | 4 | 0.0 | 0.0 | 0.00 | 0.01 | 0.00 | 89 | 1016.5 |
| 20260508050322 | 56 | 4 | 0.0 | 0.0 | 0.00 | 0.01 | 0.00 | 89 | 1017.3 |
| 20260508050048 | 56 | 4 | 0.0 | 0.0 | 0.00 | 0.01 | 0.00 | 89 | 1016.7 |
| 20260508045831 | 56 | 4 | 0.0 | 0.0 | 0.00 | 0.01 | 0.01 | 89 | 1017.4 |
| 20260508045509 | 56 | 4 | 0.0 | 0.0 | 0.00 | 0.01 | 0.01 | 89 | 1016.5 |
| 20260508045350 | 56 | 4 | 0.0 | 0.0 | 0.00 | 0.01 | 0.01 | 89 | 1017.1 |
| 20260508045038 | 56 | 4 | 0.0 | 0.0 | 0.00 | 0.01 | 0.01 | 88 | 1016.4 |
| 20260508044824 | 57 | 4 | 0.0 | 0.0 | 0.00 | 0.01 | 0.01 | 88 | 1017.2 |
| 20260508044533 | 56 | 4 | 0.0 | 0.0 | 0.00 | 0.01 | 0.01 | 88 | 1016.7 |
| 20260508044340 | 57 | 4 | 0.0 | 0.0 | 0.00 | 0.01 | 0.01 | 88 | 1017.2 |
| 20260508044057 | 56 | 4 | 0.0 | 0.0 | 0.00 | 0.01 | 0.01 | 88 | 1016.5 |
| 20260508043815 | 57 | 4 | 0.0 | 0.0 | 0.00 | 0.01 | 0.01 | 88 | 1017.0 |
| 20260508043550 | 56 | 4 | 0.0 | 0.0 | 0.00 | 0.01 | 0.01 | 88 | 1016.5 |
| 20260508043331 | 57 | 4 | 0.0 | 0.0 | 0.00 | 0.01 | 0.01 | 88 | 1017.2 |
| 20260508043042 | 56 | 4 | 0.0 | 0.0 | 0.00 | 0.01 | 0.01 | 88 | 1016.7 |
| 20260508042828 | 57 | 4 | 0.0 | 0.0 | 0.00 | 0.01 | 0.01 | 88 | 1017.4 |
| 20260508042534 | 56 | 4 | 0.0 | 0.0 | 0.00 | 0.01 | 0.01 | 88 | 1016.7 |
| 20260508042325 | 57 | 4 | 0.0 | 0.0 | 0.00 | 0.01 | 0.01 | 88 | 1017.4 |
| 20260508042026 | 56 | 4 | 0.0 | 0.0 | 0.00 | 0.01 | 0.01 | 88 | 1016.8 |
| 20260508041822 | 57 | 4 | 0.0 | 0.0 | 0.00 | 0.01 | 0.01 | 88 | 1017.5 |
| 20260508041522 | 57 | 4 | 0.0 | 1.7 | 0.00 | 0.01 | 0.01 | 88 | 1016.8 |
| 20260508041320 | 57 | 4 | 0.0 | 1.7 | 0.00 | 0.01 | 0.01 | 88 | 1017.5 |
| 20260508041004 | 57 | 4 | 0.0 | 1.7 | 0.00 | 0.01 | 0.01 | 87 | 1017.0 |
| 20260508040836 | 57 | 4 | 0.9 | 1.7 | 0.00 | 0.01 | 0.01 | 88 | 1017.7 |
| 20260508040541 | 57 | 4 | 0.0 | 0.9 | 0.00 | 0.01 | 0.01 | 87 | 1016.9 |
| 20260508040332 | 57 | 4 | 0.0 | 0.9 | 0.00 | 0.01 | 0.01 | 87 | 1017.5 |
| 20260508040038 | 57 | 4 | 0.0 | 1.7 | 0.00 | 0.01 | 0.01 | 87 | 1017.0 |
| 20260508035827 | 57 | 4 | 0.0 | 1.7 | 0.00 | 0.01 | 0.01 | 87 | 1017.8 |
| 20260508035525 | 57 | 4 | 0.0 | 1.7 | 0.00 | 0.01 | 0.01 | 87 | 1017.1 |
| 20260508035322 | 58 | 4 | 0.9 | 1.7 | 0.00 | 0.01 | 0.01 | 87 | 1017.5 |
| 20260508035048 | 57 | 4 | 0.0 | 0.0 | 0.00 | 0.01 | 0.01 | 87 | 1016.7 |
| 20260508034819 | 58 | 4 | 0.0 | 0.0 | 0.00 | 0.01 | 0.01 | 87 | 1017.2 |
| 20260508034540 | 57 | 4 | 0.0 | 0.0 | 0.00 | 0.01 | 0.01 | 87 | 1016.6 |
| 20260508034315 | 58 | 4 | 0.0 | 0.0 | 0.00 | 0.01 | 0.01 | 87 | 1017.3 |
| 20260508034033 | 57 | 4 | 0.0 | 0.0 | 0.00 | 0.01 | 0.01 | 87 | 1016.6 |
| 20260508033831 | 58 | 4 | 0.0 | 0.0 | 0.00 | 0.01 | 0.01 | 86 | 1017.2 |
| 20260508033527 | 57 | 4 | 0.0 | 0.0 | 0.00 | 0.01 | 0.01 | 86 | 1016.5 |
| 20260508033329 | 58 | 4 | 0.0 | 0.0 | 0.00 | 0.01 | 0.01 | 86 | 1017.2 |
| 20260508033010 | 58 | 4 | 0.0 | 0.0 | 0.00 | 0.01 | 0.01 | 86 | 1016.6 |
| 20260508032825 | 58 | 4 | 0.0 | 0.0 | 0.00 | 0.01 | 0.01 | 86 | 1017.3 |
| 20260508032504 | 58 | 4 | 0.0 | 0.0 | 0.00 | 0.01 | 0.01 | 86 | 1016.6 |
| 20260508032322 | 58 | 4 | 0.0 | 0.0 | 0.00 | 0.01 | 0.01 | 86 | 1017.3 |
| 20260508032101 | 58 | 4 | 0.0 | 0.0 | 0.00 | 0.01 | 0.01 | 86 | 1016.6 |
| 20260508031818 | 58 | 4 | 0.0 | 0.0 | 0.00 | 0.01 | 0.01 | 86 | 1017.5 |
| 20260508031550 | 58 | 4 | 0.0 | 0.9 | 0.00 | 0.01 | 0.01 | 86 | 1016.7 |
| 20260508031315 | 59 | 4 | 0.0 | 1.7 | 0.00 | 0.01 | 0.01 | 86 | 1017.2 |
| 20260508031043 | 58 | 4 | 0.0 | 1.7 | 0.00 | 0.01 | 0.01 | 86 | 1016.7 |
| 20260508030829 | 59 | 4 | 0.0 | 1.7 | 0.00 | 0.01 | 0.01 | 86 | 1017.3 |
| 20260508030536 | 58 | 4 | 0.9 | 1.7 | 0.00 | 0.01 | 0.01 | 86 | 1016.8 |
| 20260508030326 | 59 | 4 | 0.9 | 1.7 | 0.00 | 0.01 | 0.01 | 86 | 1017.4 |
| 20260508030028 | 58 | 4 | 0.0 | 0.9 | 0.00 | 0.01 | 0.01 | 86 | 1016.8 |
| 20260508025823 | 59 | 4 | 0.0 | 0.9 | 0.00 | 0.01 | 0.01 | 86 | 1017.4 |
| 20260508025521 | 58 | 4 | 0.0 | 0.0 | 0.00 | 0.01 | 0.01 | 86 | 1016.7 |
| 20260508025319 | 59 | 4 | 0.0 | 0.9 | 0.00 | 0.01 | 0.01 | 86 | 1017.2 |
| 20260508025015 | 58 | 4 | 0.0 | 1.7 | 0.00 | 0.01 | 0.01 | 86 | 1016.6 |
| 20260508024817 | 59 | 4 | 0.0 | 2.6 | 0.00 | 0.01 | 0.01 | 86 | 1017.2 |